Tiempo cada hora Murzy

Hoy, 26 Octubre, Lunes

Tiempo Temperatura Precipitaciones Viento Presión Humedad
00:00 +8°C° 0 mm 2 mps 744 mmHg 94%
01:00 +7°C° 0 mm 2 mps 744 mmHg 95%
02:00 +7°C° 0 mm 3 mps 744 mmHg 95%
03:00 +7°C° 0 mm 3 mps 743 mmHg 95%
04:00 +7°C° 0 mm 3 mps 743 mmHg 95%
05:00 +7°C° 0 mm 3 mps 743 mmHg 95%
06:00 +7°C° 0 mm 4 mps 743 mmHg 94%
07:00 +7°C° 0 mm 4 mps 743 mmHg 92%
08:00 +7°C° 0 mm 4 mps 743 mmHg 90%
09:00 +8°C° 0 mm 5 mps 743 mmHg 84%
10:00 +9°C° 0 mm 6 mps 743 mmHg 79%
11:00 +11°C° 0 mm 6 mps 743 mmHg 73%
12:00 +11°C° 0 mm 6 mps 742 mmHg 73%
13:00 +11°C° 0 mm 6 mps 742 mmHg 72%
14:00 +11°C° 0 mm 6 mps 742 mmHg 72%
15:00 +11°C° 0 mm 6 mps 742 mmHg 74%
16:00 +10°C° 0 mm 6 mps 742 mmHg 76%
17:00 +10°C° 0 mm 6 mps 741 mmHg 78%
18:00 +9°C° 0 mm 6 mps 741 mmHg 79%
19:00 +9°C° 0 mm 6 mps 742 mmHg 80%
20:00 +9°C° 0 mm 6 mps 742 mmHg 81%
21:00 +9°C° 0 mm 6 mps 742 mmHg 83%
22:00 +8°C° 0 mm 5 mps 742 mmHg 85%
23:00 +8°C° 0 mm 5 mps 742 mmHg 86%

Mañana, 27 Octubre, Martes

Tiempo Temperatura Precipitaciones Viento Presión Humedad
00:00 +8°C° 0 mm 5 mps 742 mmHg 87%
01:00 +8°C° 0 mm 5 mps 742 mmHg 89%
02:00 +7°C° 0 mm 5 mps 742 mmHg 90%
03:00 +7°C° 0 mm 5 mps 742 mmHg 90%
04:00 +7°C° 0 mm 5 mps 741 mmHg 90%
05:00 +7°C° 0 mm 6 mps 741 mmHg 90%
06:00 +7°C° 0 mm 6 mps 741 mmHg 91%
07:00 +7°C° 0 mm 6 mps 741 mmHg 91%
08:00 +7°C° 0 mm 6 mps 742 mmHg 91%
09:00 +8°C° 0 mm 6 mps 742 mmHg 87%
10:00 +9°C° 0 mm 6 mps 742 mmHg 84%
11:00 +11°C° 0 mm 6 mps 742 mmHg 80%
12:00 +11°C° 0 mm 6 mps 742 mmHg 79%
13:00 +13°C° 0 mm 6 mps 742 mmHg 77%
14:00 +14°C° 0 mm 6 mps 742 mmHg 75%
15:00 +13°C° 0 mm 5 mps 742 mmHg 79%
16:00 +12°C° 0 mm 5 mps 742 mmHg 82%
17:00 +10°C° 0 mm 5 mps 742 mmHg 85%
18:00 +10°C° 0 mm 5 mps 742 mmHg 86%
19:00 +10°C° 0 mm 5 mps 742 mmHg 86%
20:00 +9°C° 0 mm 5 mps 742 mmHg 87%
21:00 +9°C° 0 mm 5 mps 742 mmHg 88%
22:00 +9°C° 0 mm 5 mps 742 mmHg 89%
23:00 +8°C° 0 mm 5 mps 742 mmHg 89%

Pasado mañana, 28 Octubre, Miércoles

Tiempo Temperatura Precipitaciones Viento Presión Humedad
00:00 +8°C° 0 mm 5 mps 742 mmHg 90%
01:00 +8°C° 0 mm 5 mps 742 mmHg 90%
02:00 +8°C° 0 mm 5 mps 742 mmHg 91%
03:00 +8°C° 0 mm 5 mps 742 mmHg 92%
04:00 +8°C° 0 mm 5 mps 742 mmHg 92%
05:00 +7°C° 0 mm 5 mps 742 mmHg 93%
06:00 +7°C° 0 mm 5 mps 742 mmHg 93%
07:00 +7°C° 0 mm 5 mps 742 mmHg 93%
08:00 +7°C° 0 mm 4 mps 742 mmHg 94%
09:00 +10°C° 0 mm 4 mps 742 mmHg 90%
10:00 +11°C° 0 mm 4 mps 743 mmHg 87%
11:00 +12°C° 0 mm 4 mps 743 mmHg 83%
12:00 +13°C° 0 mm 4 mps 743 mmHg 82%
13:00 +13°C° 0 mm 4 mps 743 mmHg 81%
14:00 +14°C° 0 mm 4 mps 743 mmHg 79%
15:00 +13°C° 0 mm 4 mps 743 mmHg 83%
16:00 +12°C° 0 mm 3 mps 743 mmHg 86%
17:00 +12°C° 0 mm 3 mps 743 mmHg 90%
18:00 +12°C° 0 mm 3 mps 743 mmHg 90%
19:00 +11°C° 0 mm 4 mps 743 mmHg 91%
20:00 +11°C° 0 mm 4 mps 743 mmHg 91%
21:00 +11°C° 0 mm 4 mps 743 mmHg 90%
22:00 +11°C° 0 mm 4 mps 743 mmHg 89%
23:00 +11°C° 0 mm 4 mps 743 mmHg 88%

29 Octubre, Jueves

Tiempo Temperatura Precipitaciones Viento Presión Humedad
00:00 +11°C° 0 mm 4 mps 743 mmHg 89%
01:00 +11°C° 0 mm 4 mps 743 mmHg 89%
02:00 +11°C° 0 mm 4 mps 743 mmHg 89%
03:00 +10°C° 0 mm 4 mps 743 mmHg 89%
04:00 +10°C° 0 mm 4 mps 743 mmHg 89%
05:00 +10°C° 0 mm 3 mps 742 mmHg 89%
06:00 +10°C° 0 mm 4 mps 742 mmHg 88%
07:00 +10°C° 0 mm 4 mps 742 mmHg 87%
08:00 +10°C° 0 mm 4 mps 742 mmHg 87%
09:00 +10°C° 0 mm 4 mps 743 mmHg 85%
10:00 +11°C° 0 mm 4 mps 743 mmHg 83%
11:00 +11°C° 0 mm 4 mps 743 mmHg 81%
12:00 +12°C° 0 mm 4 mps 743 mmHg 80%
13:00 +12°C° 0 mm 4 mps 743 mmHg 79%
14:00 +13°C° 0 mm 4 mps 742 mmHg 78%
15:00 +12°C° 0 mm 4 mps 742 mmHg 82%
16:00 +12°C° 0 mm 3 mps 742 mmHg 85%
17:00 +11°C° 0 mm 3 mps 742 mmHg 88%
18:00 +11°C° 0 mm 3 mps 743 mmHg 89%
19:00 +11°C° 0 mm 3 mps 743 mmHg 90%
20:00 +10°C° 0 mm 3 mps 743 mmHg 91%
21:00 +10°C° 0.2 mm 3 mps 743 mmHg 90%
22:00 +11°C° 0.2 mm 3 mps 743 mmHg 89%
23:00 +11°C° 0.2 mm 3 mps 743 mmHg 88%

30 Octubre, Viernes

Tiempo Temperatura Precipitaciones Viento Presión Humedad
00:00 +10°C° 0.4 mm 3 mps 743 mmHg 89%
01:00 +10°C° 0.4 mm 3 mps 743 mmHg 90%
02:00 +10°C° 0.4 mm 3 mps 744 mmHg 91%
03:00 +9°C° 0.1 mm 3 mps 744 mmHg 92%
04:00 +8°C° 0.1 mm 3 mps 744 mmHg 93%
05:00 +8°C° 0.1 mm 2 mps 744 mmHg 94%
06:00 +7°C° 0 mm 2 mps 744 mmHg 95%
07:00 +7°C° 0 mm 2 mps 744 mmHg 95%
08:00 +7°C° 0 mm 2 mps 744 mmHg 96%
09:00 +8°C° 0 mm 3 mps 744 mmHg 89%
10:00 +9°C° 0 mm 3 mps 744 mmHg 82%
11:00 +10°C° 0 mm 4 mps 744 mmHg 75%
12:00 +11°C° 0 mm 4 mps 744 mmHg 74%
13:00 +11°C° 0 mm 4 mps 744 mmHg 72%
14:00 +10°C° 0 mm 5 mps 744 mmHg 71%
15:00 +11°C° 0 mm 4 mps 744 mmHg 73%
16:00 +10°C° 0 mm 4 mps 744 mmHg 76%
17:00 +10°C° 0 mm 4 mps 744 mmHg 78%
18:00 +10°C° 0 mm 4 mps 744 mmHg 79%
19:00 +9°C° 0 mm 5 mps 744 mmHg 80%
20:00 +9°C° 0 mm 5 mps 744 mmHg 81%
21:00 +9°C° 0 mm 5 mps 744 mmHg 83%
22:00 +9°C° 0 mm 5 mps 744 mmHg 84%
23:00 +9°C° 0 mm 5 mps 744 mmHg 85%

31 Octubre, Sábado

Tiempo Temperatura Precipitaciones Viento Presión Humedad
00:00 +9°C° 0.1 mm 5 mps 744 mmHg 87%
01:00 +10°C° 0.1 mm 4 mps 744 mmHg 88%
02:00 +10°C° 0.1 mm 4 mps 744 mmHg 89%
03:00 +10°C° 0 mm 4 mps 744 mmHg 90%
04:00 +10°C° 0 mm 4 mps 744 mmHg 91%
05:00 +8°C° 0 mm 4 mps 744 mmHg 92%
06:00 +10°C° 0 mm 4 mps 744 mmHg 92%
07:00 +10°C° 0 mm 4 mps 744 mmHg 92%
08:00 +10°C° 0 mm 3 mps 745 mmHg 92%
Mostrar más

Necesitamos Su Consentimiento

Meteoprog y nuestros Proveedores de Servicios pueden almacenar y acceder a sus datos personales como cookies, identificadores de dispositivo u otras tecnologías similares de su dispositivo y procesar dichos datos para personalizar contenido y anuncios, además de ofrecer funciones de redes sociales y analizar el tráfico.

  • Almacenar y/o acceder a información en su dispositivo

    Se puede almacenar o acceder a cookies, identificadores de dispositivo u otra información de su dispositivo para los fines anteriormente indicados.

  • Anuncios y contenido personalizados, medición de anuncios y contenido, percepciones del público, y desarrollo de productos

    Los anuncios y el contenido pueden personalizarse en base a su perfil. Se pueden añadir más datos para personalizar mejor los anuncios y contenidos. Se puede medir el rendimiento de los anuncios y contenidos. Se puede obtener la percepción sobre el público que ha visto los anuncios y contenidos. Dichos datos pueden usarse para desarrollar o mejorar la experiencia del usuario, sistemas y software.

Al hacer clic en ‘Estoy De Acuerdo’ usted permitirá el uso de las cookies, identificadores de dispositivo, balizas web u otras tecnologías similares indicadas. Su configuración puede cambiarse desde el navegador de su dispositivo.

Para ciertos fines, los intereses legítimos pueden ser considerados por encima del consentimiento. Puede leer más sobre ello en nuestra Política de Privacidad y Cookies.